| time (UTC) | temp C | wind direction | speed KPH | gust KPH | rain 1hr cm | rain 24hr cm | rain mn cm | humidity % | barometer mb |
| 20260507170603 | 13 | 78 | 3.2 | 8.0 | 0.00 | 0.00 | 0.00 | 67 | 1013.9 |
| 20260507163604 | 13 | 76 | 1.6 | 8.0 | 0.00 | 0.00 | 0.00 | 60 | 1013.9 |
| 20260507143603 | 15 | 25 | 4.8 | 11.3 | 0.00 | 0.00 | 0.00 | 50 | 1014.4 |
| 20260507140104 | 15 | 121 | 4.8 | 14.5 | 0.00 | 0.00 | 0.00 | 52 | 1014.8 |
| 20260507133103 | 15 | 23 | 1.6 | 12.9 | 0.00 | 0.00 | 0.00 | 53 | 1014.8 |
| 20260507130603 | 15 | 122 | 3.2 | 16.1 | 0.00 | 0.00 | 0.00 | 57 | 1014.8 |
| 20260507120104 | 14 | 185 | 4.8 | 19.3 | 0.00 | 0.00 | 0.00 | 61 | 1015.3 |
| 20260507113605 | 13 | 146 | 4.8 | 14.5 | 0.00 | 0.00 | 0.00 | 69 | 1015.3 |
| 20260507110603 | 12 | 123 | 6.4 | 14.5 | 0.00 | 0.00 | 0.00 | 69 | 1015.5 |
| 20260507103104 | 11 | 176 | 4.8 | 12.9 | 0.00 | 0.00 | 0.00 | 76 | 1015.7 |
| 20260507093104 | 10 | 178 | 3.2 | 12.9 | 0.00 | 0.00 | 0.00 | 82 | 1015.7 |
| 20260507090106 | 10 | 147 | 1.6 | 9.7 | 0.00 | 0.00 | 0.00 | 83 | 1015.7 |
| 20260507083603 | 9 | 299 | 1.6 | 9.7 | 0.00 | 0.00 | 0.00 | 87 | 1015.7 |
| 20260507083103 | 9 | 137 | 3.2 | 9.7 | 0.00 | 0.00 | 0.00 | 86 | 1015.7 |
| 20260507080604 | 8 | 137 | 4.8 | 11.3 | 0.00 | 0.00 | 0.00 | 89 | 1015.7 |
| 20260507080103 | 8 | 130 | 3.2 | 11.3 | 0.00 | 0.00 | 0.00 | 89 | 1015.7 |
| 20260507073604 | 7 | 114 | 4.8 | 9.7 | 0.00 | 0.00 | 0.00 | 91 | 1015.7 |
| 20260507063103 | 6 | 144 | 1.6 | 9.7 | 0.00 | 0.00 | 0.00 | 98 | 1015.5 |
| 20260507053604 | 5 | 152 | 3.2 | 8.0 | 0.00 | 0.00 | 0.00 | 100 | 1015.3 |
| 20260507053104 | 5 | 152 | 4.8 | 9.7 | 0.00 | 0.00 | 0.00 | 100 | 1015.3 |
| 20260507050603 | 3 | 157 | 0.0 | 3.2 | 0.00 | 0.00 | 0.00 | 100 | 1015.3 |
| 20260507050104 | 3 | 145 | 0.0 | 4.8 | 0.00 | 0.00 | 0.00 | 100 | 1015.3 |
| 20260507040104 | 2 | 176 | 0.0 | 0.0 | 0.00 | 0.00 | 0.00 | 100 | 1015.3 |
| 20260507033603 | 3 | 165 | 0.0 | 0.0 | 0.00 | 0.00 | 0.00 | 100 | 1015.2 |
| 20260507023603 | 3 | 162 | 3.2 | 4.8 | 0.00 | 0.00 | 0.00 | 100 | 1015.3 |
| 20260507020103 | 5 | 172 | 1.6 | 4.8 | 0.00 | 0.00 | 0.00 | 100 | 1015.3 |
| 20260507013603 | 5 | 128 | 1.6 | 3.2 | 0.00 | 0.00 | 0.00 | 100 | 1015.5 |
| 20260507003104 | 3 | 151 | 0.0 | 4.8 | 0.00 | 0.00 | 0.00 | 100 | 1015.7 |
| 20260507000604 | 4 | 168 | 3.2 | 4.8 | 0.00 | 0.00 | 0.00 | 99 | 1015.7 |
| 20260507000104 | 4 | 151 | 1.6 | 8.0 | 0.00 | 0.00 | 0.00 | 99 | 1015.7 |
| 20260506233103 | 5 | 168 | 1.6 | 11.3 | 0.00 | 0.00 | 0.00 | 99 | 1015.7 |
| 20260506230104 | 5 | 166 | 3.2 | 8.0 | 0.00 | 0.00 | 0.00 | 99 | 1015.7 |
| 20260506223104 | 5 | 179 | 0.0 | 9.7 | 0.00 | 0.00 | 0.00 | 100 | 1015.7 |
| 20260506220603 | 4 | 152 | 0.0 | 3.2 | 0.00 | 0.00 | 0.00 | 100 | 1015.7 |
| 20260506220103 | 3 | 144 | 0.0 | 8.0 | 0.00 | 0.00 | 0.00 | 100 | 1015.6 |
| 20260506213603 | 3 | 173 | 1.6 | 4.8 | 0.00 | 0.00 | 0.00 | 99 | 1015.5 |
| 20260506210604 | 3 | 67 | 0.0 | 0.0 | 0.00 | 0.00 | 0.00 | 98 | 1015.3 |
| 20260506200605 | 5 | 147 | 1.6 | 4.8 | 0.00 | 0.00 | 0.00 | 94 | 1014.8 |
| 20260506200104 | 5 | 173 | 3.2 | 9.7 | 0.00 | 0.00 | 0.00 | 93 | 1014.7 |
| 20260506193604 | 6 | 155 | 4.8 | 9.7 | 0.00 | 0.00 | 0.00 | 90 | 1014.5 |
| 20260506193103 | 6 | 152 | 3.2 | 4.8 | 0.00 | 0.00 | 0.00 | 90 | 1014.4 |
| 20260506190603 | 7 | 313 | 1.6 | 4.8 | 0.00 | 0.00 | 0.00 | 89 | 1014.4 |
| 20260506183604 | 8 | 229 | 3.2 | 8.0 | 0.00 | 0.00 | 0.00 | 80 | 1014.4 |
| 20260506180603 | 9 | 16 | 0.0 | 9.7 | 0.00 | 0.00 | 0.00 | 73 | 1014.4 |
| 20260506173103 | 10 | 28 | 3.2 | 12.9 | 0.00 | 0.00 | 0.00 | 65 | 1014.1 |